Sidney, NE

1:51 AM MDT on September 23, 2017 (GMT -0600)
Sidney Municipal

Weather History for KSNY - December, 2013

Change the Weather History Date:

Saturday, December 7, 2013

  Actual Average Record
Temperature  
Mean Temperature 4 °F 29 °F  
Max Temperature 10 °F 42 °F 70 °F (1984)
Min Temperature -2 °F 17 °F -16 °F (2005)
Degree Days  
Heating Degree Days 61 36  
Month to date heating degree days 315 244  
Since 1 July heating degree days 1807 1666  
Cooling Degree Days 0 0  
Month to date cooling degree days 0 0  
Year to date cooling degree days 918 830  
Moisture  
Dew Point -2 °F    
Average Humidity 78    
Maximum Humidity 87    
Minimum Humidity 69    
Precipitation  
Precipitation T in 0.02 in 0.68 in (1994)
Month to date precipitation T 0.14  
Year to date precipitation 16.92 18.14  
Sea Level Pressure  
Sea Level Pressure 30.26 in    
Wind  
Wind Speed 17 mph (SSE)    
Max Wind Speed 28 mph    
Max Gust Speed 32 mph    
Visibility 7 miles    
Events Snow    
T = Trace of Precipitation, MM = Missing Value Source: NWS Daily Summary

Daily Weather History Graph

Daily Weather History Graph

Search for Another Location

Airport or City:

Trip Planner

Search our weather history database for the weather conditions in past years. The results will help you decide how hot, cold, wet, or windy it might be!

Date:

Astronomy

Dec. 07, 2013 Rise Set
Actual Time 7:03 AM MST 4:23 PM MST
Civil Twilight 6:32 AM MST 4:54 PM MST
Nautical Twilight 5:58 AM MST 5:28 PM MST
Astronomical Twilight 5:25 AM MST 6:01 PM MST
Moon 10:48 AM MST (12/7) 10:09 PM MST (12/7)
Length of Visible Light 10h 21m
Length of Day
9h 19m
Waxing Crescent, 30% of the Moon is Illuminated
Dec 7
Waxing Crescent
Dec 9
First Quarter
Dec 17
Full
Dec 25
Last Quarter
Jan 1
New

Hourly Weather History & Observations

Time (MST) Temp. Windchill Dew Point Humidity Pressure Visibility Wind Dir Wind Speed Gust Speed Precip Events Conditions
12:53 AM -0.0 °F -15.3 °F -7.1 °F 72% 30.50 in 10.0 mi SSE 9.2 mph - N/A   Clear
1:53 AM -0.9 °F -18.3 °F -8.0 °F 72% 30.50 in 10.0 mi South 11.5 mph - N/A   Clear
2:53 AM -0.9 °F -18.3 °F -8.0 °F 72% 30.49 in 10.0 mi SSE 11.5 mph - N/A   Clear
3:53 AM 1.0 °F -12.9 °F -5.1 °F 75% 30.48 in 10.0 mi South 8.1 mph - N/A   Mostly Cloudy
4:53 AM 3.0 °F -11.5 °F -4.0 °F 73% 30.46 in 10.0 mi South 9.2 mph - N/A   Overcast
5:53 AM 1.9 °F -12.9 °F -2.9 °F 80% 30.47 in 10.0 mi SE 9.2 mph - N/A   Overcast
6:53 AM 5.0 °F -13.6 °F -0.0 °F 80% 30.45 in 10.0 mi SSE 16.1 mph - N/A   Overcast
7:53 AM 6.1 °F -13.8 °F -0.9 °F 73% 30.44 in 10.0 mi SSE 19.6 mph 25.3 mph N/A   Overcast
8:53 AM 7.0 °F -13.1 °F -0.9 °F 70% 30.43 in 10.0 mi SSE 20.7 mph 27.6 mph N/A   Overcast
9:53 AM 8.1 °F -10.2 °F -0.9 °F 67% 30.42 in 10.0 mi South 17.3 mph 28.8 mph N/A   Overcast
10:53 AM 9.0 °F -11.4 °F -0.0 °F 67% 30.38 in 10.0 mi South 23.0 mph 29.9 mph N/A   Overcast
11:07 AM 8.6 °F -12.7 °F -0.4 °F 67% 30.11 in 10.0 mi SSE 25.3 mph 32.2 mph N/A   Overcast
11:29 AM 8.6 °F -11.9 °F -0.4 °F 67% 30.09 in 7.0 mi SSE 23.0 mph 32.2 mph N/A   Overcast
11:53 AM 9.0 °F -11.0 °F 1.0 °F 70% 30.32 in 6.0 mi SSE 21.9 mph 27.6 mph N/A   Haze
12:48 PM 8.6 °F -10.0 °F 1.4 °F 73% 30.03 in 1.8 mi SSE 18.4 mph 27.6 mph 0.00 in Snow Light Snow
12:53 PM 9.0 °F -11.4 °F 1.9 °F 73% 30.28 in 1.5 mi SSE 23.0 mph 27.6 mph 0.00 in Snow Light Snow
1:01 PM 10.4 °F -8.6 °F 1.4 °F 67% 30.02 in 3.0 mi SSE 20.7 mph 27.6 mph 0.00 in Snow Light Snow
1:53 PM 9.0 °F -11.0 °F -0.0 °F 67% 30.25 in 9.0 mi SSE 21.9 mph - 0.00 in   Overcast
2:53 PM 8.1 °F -11.7 °F -0.0 °F 70% 30.23 in 8.0 mi SSE 20.7 mph 26.5 mph N/A   Overcast
3:53 PM 7.0 °F -12.6 °F -0.9 °F 70% 30.22 in 10.0 mi SSE 19.6 mph - N/A   Overcast
4:53 PM 6.1 °F -10.9 °F -0.9 °F 73% 30.21 in 6.0 mi SE 13.8 mph - N/A   Haze
5:53 PM 5.0 °F -14.2 °F -0.9 °F 76% 30.21 in 4.0 mi SE 17.3 mph - N/A   Haze
6:53 PM 5.0 °F -14.7 °F -0.9 °F 76% 30.20 in 3.0 mi SE 18.4 mph - N/A   Haze
7:07 PM 5.0 °F -14.2 °F -0.4 °F 78% 29.94 in 3.0 mi SE 17.3 mph - N/A   Haze
7:53 PM 3.9 °F -15.6 °F -0.9 °F 80% 30.18 in 5.0 mi SE 17.3 mph - N/A   Haze
8:06 PM 3.2 °F -16.5 °F -0.4 °F 85% 29.92 in 5.0 mi SE 17.3 mph - N/A   Haze
8:53 PM 3.9 °F -15.6 °F -2.0 °F 76% 30.15 in 5.0 mi SSE 17.3 mph 24.2 mph N/A   Haze
9:53 PM 3.9 °F -14.3 °F -2.0 °F 76% 30.14 in 3.0 mi SE 15.0 mph - N/A   Haze
10:53 PM 3.9 °F -16.6 °F -2.0 °F 76% 30.11 in 6.0 mi SSE 19.6 mph - N/A   Haze
11:53 PM 3.9 °F -15.6 °F -0.9 °F 80% 30.08 in 10.0 mi SSE 17.3 mph - N/A   Overcast